DW6417 Weather Reports


Display with metric or nautical units.
time (UTC)temp
F
wind
direction
speed
MPH
gust
MPH
rain 1hr
in
rain 24hr
in
rain mn
in
humidity
%
barometer
mb
20260509070624 56 125 2.0 4.0 0.00 0.00 0.00 76 1017.3
20260509070418 56 129 2.0 7.0 0.00 0.00 0.00 76 1017.3
20260509065918 56 160 3.0 7.0 0.00 0.00 0.00 76 1017.4
20260509065625 55 144 3.0 6.0 0.00 0.00 0.00 77 1017.3
20260509064918 54 110 3.0 7.0 0.00 0.00 0.00 78 1017.3
20260509064624 54 103 3.0 7.0 0.00 0.00 0.00 78 1017.3
20260509064419 54 104 2.0 7.0 0.00 0.00 0.00 78 1017.3
20260509063919 54 105 2.0 5.0 0.00 0.00 0.00 80 1017.4
20260509063419 53 105 2.0 5.0 0.00 0.00 0.00 79 1017.3
20260509062918 53 105 2.0 5.0 0.00 0.00 0.00 82 1017.3
20260509062624 52 106 2.0 5.0 0.00 0.00 0.00 82 1017.3
20260509062418 52 105 3.0 5.0 0.00 0.00 0.00 82 1017.3
20260509061918 52 106 2.0 5.0 0.00 0.00 0.00 82 1017.2
20260509061419 51 106 3.0 5.0 0.00 0.00 0.00 84 1017.3
20260509060919 51 106 2.0 5.0 0.00 0.00 0.00 85 1017.3
20260509060625 50 106 1.0 4.0 0.00 0.00 0.00 87 1017.3
20260509060419 50 106 1.0 4.0 0.00 0.00 0.00 87 1017.3
20260509055918 50 106 2.0 4.0 0.00 0.00 0.00 89 1017.2
20260509055624 49 106 2.0 3.0 0.00 0.00 0.00 89 1017.3
20260509055419 49 106 2.0 4.0 0.00 0.00 0.00 89 1017.3
20260509054919 48 106 3.0 4.0 0.00 0.00 0.00 90 1017.3
20260509054624 48 106 3.0 4.0 0.00 0.00 0.00 91 1017.3
20260509054418 48 106 2.0 4.0 0.00 0.00 0.00 91 1017.3
20260509053919 47 106 2.0 4.0 0.00 0.00 0.00 92 1017.3
20260509053624 47 106 2.0 4.0 0.00 0.00 0.00 92 1017.3
20260509052918 46 106 2.0 4.0 0.00 0.00 0.00 92 1017.3
20260509052419 46 106 2.0 3.0 0.00 0.00 0.00 92 1017.3
20260509051919 46 97 1.0 3.0 0.00 0.00 0.00 92 1017.1
20260509051625 45 107 1.0 2.0 0.00 0.00 0.00 92 1017.1
20260509051419 45 89 1.0 2.0 0.00 0.00 0.00 92 1017.1
20260509050919 45 88 2.0 2.0 0.00 0.00 0.00 92 1017.1
20260509050625 45 88 2.0 2.0 0.00 0.00 0.00 92 1017.0
20260509050418 45 88 2.0 3.0 0.00 0.00 0.00 92 1017.0
20260509045919 44 88 1.0 3.0 0.00 0.00 0.00 92 1016.8
20260509045624 44 88 1.0 2.0 0.00 0.00 0.00 91 1016.8
20260509045418 44 88 1.0 2.0 0.00 0.00 0.00 91 1016.8
20260509044919 44 88 1.0 2.0 0.00 0.00 0.00 91 1016.8
20260509044625 44 88 1.0 2.0 0.00 0.00 0.00 91 1016.6
20260509044418 44 88 1.0 3.0 0.00 0.00 0.00 91 1016.6
20260509043919 43 88 1.0 3.0 0.00 0.00 0.00 91 1016.6
20260509043624 43 88 1.0 2.0 0.00 0.00 0.00 91 1016.6
20260509043419 43 88 1.0 2.0 0.00 0.00 0.00 91 1016.6
20260509042918 43 0 0.0 2.0 0.00 0.00 0.00 90 1016.6
20260509042624 43 88 0.0 2.0 0.00 0.00 0.00 90 1016.6
20260509042419 43 0 0.0 2.0 0.00 0.00 0.00 90 1016.7
20260509041919 43 0 0.0 2.0 0.00 0.00 0.00 90 1016.6
20260509041625 43 86 0.0 2.0 0.00 0.00 0.00 90 1016.6
20260509041418 43 87 1.0 2.0 0.00 0.00 0.00 90 1016.6
20260509040919 42 86 1.0 2.0 0.00 0.00 0.00 90 1016.6
20260509040625 42 86 0.0 2.0 0.00 0.00 0.00 90 1016.6
20260509040419 42 0 0.0 2.0 0.00 0.00 0.00 90 1016.6
20260509035918 43 0 0.0 2.0 0.00 0.00 0.00 90 1016.6
20260509035625 43 86 0.0 1.0 0.00 0.00 0.00 89 1016.7
20260509035419 43 0 0.0 1.0 0.00 0.00 0.00 89 1016.7
20260509034918 42 0 0.0 0.0 0.00 0.00 0.00 90 1016.8
20260509034419 43 0 0.0 0.0 0.00 0.00 0.00 89 1016.6
20260509033920 43 0 0.0 1.0 0.00 0.00 0.00 90 1016.7
20260509033626 43 86 0.0 1.0 0.00 0.00 0.00 90 1016.7
20260509033418 43 0 0.0 1.0 0.00 0.00 0.00 90 1016.8
20260509032919 43 0 0.0 1.0 0.00 0.00 0.00 89 1016.7
20260509032625 42 82 0.0 0.0 0.00 0.00 0.00 89 1016.7
20260509032418 42 0 0.0 0.0 0.00 0.00 0.00 89 1016.7
20260509031919 42 0 0.0 0.0 0.00 0.00 0.00 89 1016.8
20260509031625 42 82 0.0 0.0 0.00 0.00 0.00 89 1016.7
20260509031419 42 0 0.0 0.0 0.00 0.00 0.00 89 1016.8
20260509030919 42 0 0.0 0.0 0.00 0.00 0.00 88 1016.8
20260509030625 42 82 0.0 0.0 0.00 0.00 0.00 88 1016.8
20260509030419 42 0 0.0 0.0 0.00 0.00 0.00 88 1016.8
20260509025919 43 0 0.0 0.0 0.00 0.00 0.00 88 1016.9
20260509025624 43 82 0.0 0.0 0.00 0.00 0.00 88 1016.9
20260509025419 43 0 0.0 0.0 0.00 0.00 0.00 88 1016.9
20260509024919 43 0 0.0 0.0 0.00 0.00 0.00 88 1016.9
20260509024625 43 82 0.0 0.0 0.00 0.00 0.00 88 1017.0
20260509024419 43 0 0.0 0.0 0.00 0.00 0.00 88 1017.0
20260509023919 43 0 0.0 0.0 0.00 0.00 0.00 88 1017.0
20260509023624 43 82 0.0 0.0 0.00 0.00 0.00 88 1016.9
20260509023419 43 0 0.0 0.0 0.00 0.00 0.00 88 1017.0
20260509022919 43 0 0.0 0.0 0.00 0.00 0.00 88 1017.0
20260509022625 43 82 0.0 0.0 0.00 0.00 0.00 88 1016.9
20260509022419 43 0 0.0 0.0 0.00 0.00 0.00 88 1017.0
20260509021919 44 0 0.0 0.0 0.00 0.00 0.00 88 1017.0
20260509021625 44 82 0.0 0.0 0.00 0.00 0.00 88 1017.1
20260509021419 44 0 0.0 0.0 0.00 0.00 0.00 88 1017.0
20260509020919 44 0 0.0 0.0 0.00 0.00 0.00 88 1017.0
20260509020624 44 82 0.0 0.0 0.00 0.00 0.00 88 1017.0
20260509020418 44 0 0.0 0.0 0.00 0.00 0.00 88 1017.0
20260509015919 44 0 0.0 0.0 0.00 0.00 0.00 88 1017.0
20260509015420 44 0 0.0 0.0 0.00 0.00 0.00 88 1017.0
20260509014919 44 0 0.0 0.0 0.00 0.00 0.00 88 1017.0
20260509014624 44 82 0.0 0.0 0.00 0.00 0.00 88 1017.1
20260509014419 44 0 0.0 0.0 0.00 0.00 0.00 88 1017.1
20260509013919 44 0 0.0 0.0 0.00 0.00 0.00 88 1017.0
20260509013625 44 82 0.0 0.0 0.00 0.00 0.00 88 1017.1
20260509013419 44 0 0.0 0.0 0.00 0.00 0.00 88 1017.1
20260509012919 44 0 0.0 0.0 0.00 0.00 0.00 88 1017.0
20260509012625 45 82 0.0 0.0 0.00 0.00 0.00 88 1017.0
20260509012419 45 0 0.0 0.0 0.00 0.00 0.00 88 1017.0
20260509011919 45 0 0.0 0.0 0.00 0.00 0.00 88 1017.1
20260509011625 45 82 0.0 0.0 0.00 0.00 0.00 88 1017.0
20260509010919 45 0 0.0 0.0 0.00 0.00 0.00 88 1017.1
20260509010625 45 82 0.0 0.0 0.00 0.00 0.00 88 1017.1
20260509010419 45 0 0.0 0.0 0.00 0.00 0.00 88 1017.1
20260509005919 45 0 0.0 0.0 0.00 0.00 0.00 88 1017.1
20260509005625 45 82 0.0 0.0 0.00 0.00 0.00 88 1017.1
20260509004918 45 0 0.0 0.0 0.00 0.00 0.00 87 1017.1
20260509004625 45 82 0.0 0.0 0.00 0.00 0.00 87 1017.1
20260509004419 45 0 0.0 0.0 0.00 0.00 0.00 87 1017.1
20260509003625 45 82 0.0 0.0 0.00 0.00 0.00 86 1017.1
20260509003419 45 0 0.0 0.0 0.00 0.00 0.00 86 1017.1
20260509002918 45 0 0.0 0.0 0.00 0.00 0.00 86 1017.1
20260509002419 45 0 0.0 0.0 0.00 0.00 0.00 86 1017.1
20260509001919 45 0 0.0 0.0 0.00 0.00 0.00 86 1017.1
20260509001625 45 82 0.0 0.0 0.00 0.00 0.00 86 1017.1
20260509000919 45 0 0.0 0.0 0.00 0.00 0.00 86 1017.1
20260509000625 45 82 0.0 0.0 0.00 0.00 0.00 86 1017.1
20260509000419 45 0 0.0 0.0 0.00 0.00 0.00 86 1017.1
20260508235625 46 82 0.0 0.0 0.00 0.00 0.00 85 1017.1
20260508235419 46 0 0.0 0.0 0.00 0.00 0.00 85 1017.1
20260508234919 46 0 0.0 0.0 0.00 0.00 0.00 85 1017.2
20260508234625 46 82 0.0 0.0 0.00 0.00 0.00 85 1017.1
20260508234419 46 0 0.0 0.0 0.00 0.00 0.00 85 1017.1
20260508233919 46 0 0.0 0.0 0.00 0.00 0.00 85 1017.2
20260508233625 46 82 0.0 0.0 0.00 0.00 0.00 85 1017.1
20260508233419 46 0 0.0 0.0 0.00 0.00 0.00 85 1017.1
20260508232919 46 0 0.0 0.0 0.00 0.00 0.00 85 1017.2
20260508232419 46 0 0.0 0.0 0.00 0.00 0.00 85 1017.1
20260508231625 46 82 0.0 0.0 0.00 0.00 0.00 84 1017.1
20260508231419 46 0 0.0 0.0 0.00 0.00 0.00 84 1017.1
20260508230918 46 0 0.0 0.0 0.00 0.00 0.00 84 1017.2
20260508230625 47 82 0.0 0.0 0.00 0.00 0.00 84 1017.2
20260508230419 47 0 0.0 0.0 0.00 0.00 0.00 84 1017.2
20260508224625 47 82 0.0 0.0 0.00 0.00 0.00 84 1017.1
20260508224419 47 0 0.0 0.0 0.00 0.00 0.00 84 1017.1
20260508223920 47 0 0.0 0.0 0.00 0.00 0.00 83 1017.1
20260508223625 47 82 0.0 0.0 0.00 0.00 0.00 83 1017.2
20260508223419 47 0 0.0 0.0 0.00 0.00 0.00 83 1017.2
20260508222920 47 0 0.0 0.0 0.00 0.00 0.00 83 1017.1
20260508222625 47 82 0.0 0.0 0.00 0.00 0.00 83 1017.1
20260508221919 48 0 0.0 0.0 0.00 0.00 0.00 83 1017.1
20260508221625 48 82 0.0 0.0 0.00 0.00 0.00 82 1017.1
20260508221419 48 0 0.0 0.0 0.00 0.00 0.00 82 1017.2
20260508220919 48 0 0.0 0.0 0.00 0.00 0.00 82 1017.1
20260508220625 48 82 0.0 0.0 0.00 0.00 0.00 82 1017.1
20260508220419 48 0 0.0 0.0 0.00 0.00 0.00 82 1017.1
20260508215924 48 0 0.0 0.0 0.00 0.00 0.00 81 1017.1
20260508215625 48 82 0.0 0.0 0.00 0.00 0.00 81 1017.1
20260508215419 48 0 0.0 0.0 0.00 0.00 0.00 81 1017.1
20260508214919 49 0 0.0 0.0 0.00 0.00 0.00 80 1017.2
20260508214625 49 82 0.0 0.0 0.00 0.00 0.00 80 1017.1
20260508214419 49 0 0.0 0.0 0.00 0.00 0.00 80 1017.1
20260508213920 49 0 0.0 0.0 0.00 0.00 0.00 80 1017.1
20260508213625 49 82 0.0 0.0 0.00 0.00 0.00 80 1017.0
20260508213419 49 0 0.0 0.0 0.00 0.00 0.00 80 1017.0
20260508212625 49 82 0.0 0.0 0.00 0.00 0.00 80 1016.9
20260508212419 49 0 0.0 0.0 0.00 0.00 0.00 80 1016.9
20260508211919 50 0 0.0 0.0 0.00 0.00 0.00 79 1017.0
20260508211625 50 82 0.0 0.0 0.00 0.00 0.00 79 1017.0
20260508211419 50 0 0.0 0.0 0.00 0.00 0.00 79 1017.0
20260508210919 50 0 0.0 0.0 0.00 0.00 0.00 79 1016.9
20260508210625 50 82 0.0 0.0 0.00 0.00 0.00 79 1017.0
20260508210419 50 0 0.0 0.0 0.00 0.00 0.00 79 1016.9
20260508205919 50 0 0.0 0.0 0.00 0.00 0.00 79 1016.9
20260508205419 50 0 0.0 0.0 0.00 0.00 0.00 78 1016.9
20260508204920 51 0 0.0 0.0 0.00 0.00 0.00 78 1016.9
20260508204626 51 82 0.0 0.0 0.00 0.00 0.00 78 1016.9
20260508204419 51 0 0.0 0.0 0.00 0.00 0.00 78 1016.9
20260508203625 51 82 0.0 0.0 0.00 0.00 0.00 77 1016.8
20260508203420 51 0 0.0 0.0 0.00 0.00 0.00 77 1016.8
20260508202919 51 0 0.0 0.0 0.00 0.00 0.00 77 1016.9
20260508202625 51 82 0.0 0.0 0.00 0.00 0.00 77 1016.8
20260508202419 51 0 0.0 0.0 0.00 0.00 0.00 77 1016.8
20260508201919 52 0 0.0 0.0 0.00 0.00 0.00 76 1016.8
20260508201626 52 82 0.0 0.0 0.00 0.00 0.00 75 1016.7
20260508201419 52 0 0.0 0.0 0.00 0.00 0.00 76 1016.8
20260508200419 53 0 0.0 0.0 0.00 0.00 0.00 74 1016.6
20260508195919 53 0 0.0 0.0 0.00 0.00 0.00 74 1016.7
20260508195625 53 82 0.0 0.0 0.00 0.00 0.00 73 1016.5
20260508195419 53 0 0.0 0.0 0.00 0.00 0.00 73 1016.5
20260508194919 54 0 0.0 0.0 0.00 0.00 0.00 72 1016.6
20260508194625 54 82 0.0 0.0 0.00 0.00 0.00 72 1016.6
20260508194419 54 0 0.0 0.0 0.00 0.00 0.00 72 1016.6
20260508193919 55 0 0.0 0.0 0.00 0.00 0.00 72 1016.6
20260508193625 55 82 0.0 0.0 0.00 0.00 0.00 71 1016.5
20260508193419 55 0 0.0 0.0 0.00 0.00 0.00 71 1016.5
20260508192921 56 0 0.0 0.0 0.00 0.00 0.00 71 1016.5
20260508192625 56 82 0.0 0.0 0.00 0.00 0.00 70 1016.4
20260508192419 56 0 0.0 0.0 0.00 0.00 0.00 70 1016.5
20260508191625 57 82 0.0 0.0 0.00 0.00 0.00 69 1016.4
20260508191419 57 0 0.0 0.0 0.00 0.00 0.00 69 1016.4
20260508190919 58 0 0.0 0.0 0.00 0.00 0.00 68 1016.4
20260508190625 58 82 0.0 0.0 0.00 0.00 0.00 67 1016.1
20260508190419 58 0 0.0 0.0 0.00 0.00 0.00 67 1016.2
20260508185919 58 0 0.0 0.0 0.00 0.00 0.00 67 1016.1
20260508185419 59 0 0.0 0.0 0.00 0.00 0.00 64 1016.0
20260508184919 59 0 0.0 0.0 0.00 0.00 0.00 63 1016.0
20260508184625 59 82 0.0 0.0 0.00 0.00 0.00 61 1015.9
20260508184420 59 0 0.0 1.0 0.00 0.00 0.00 61 1015.9
20260508183625 60 82 1.0 2.0 0.00 0.00 0.00 59 1015.8
20260508183419 60 82 1.0 3.0 0.00 0.00 0.00 59 1015.8
20260508182625 60 82 1.0 2.0 0.00 0.00 0.00 56 1015.8
20260508182419 60 82 1.0 2.0 0.00 0.00 0.00 56 1015.8
20260508181920 61 82 1.0 3.0 0.00 0.00 0.00 56 1015.7
20260508181625 61 82 1.0 3.0 0.00 0.00 0.00 56 1015.6
20260508181419 61 83 1.0 3.0 0.00 0.00 0.00 56 1015.7
20260508180919 61 82 1.0 3.0 0.00 0.00 0.00 56 1015.8
20260508180625 61 82 0.0 2.0 0.00 0.00 0.00 54 1015.5
20260508175919 61 83 2.0 5.0 0.00 0.00 0.00 54 1015.5
20260508175625 62 82 2.0 5.0 0.00 0.00 0.00 52 1015.4
20260508175419 62 83 2.0 5.0 0.00 0.00 0.00 52 1015.5
20260508174919 62 86 2.0 5.0 0.00 0.00 0.00 51 1015.4
20260508174625 62 82 2.0 4.0 0.00 0.00 0.00 52 1015.3
20260508174419 62 93 2.0 4.0 0.00 0.00 0.00 52 1015.3
20260508173921 62 98 2.0 4.0 0.00 0.00 0.00 52 1015.4
20260508173625 62 99 1.0 3.0 0.00 0.00 0.00 52 1015.4
20260508173420 62 98 2.0 4.0 0.00 0.00 0.00 52 1015.4
20260508172919 62 99 2.0 5.0 0.00 0.00 0.00 50 1015.3
20260508172625 62 99 2.0 5.0 0.00 0.00 0.00 50 1015.2
20260508172419 62 101 2.0 7.0 0.00 0.00 0.00 50 1015.2
20260508171919 62 106 2.0 7.0 0.00 0.00 0.00 49 1015.2
20260508171625 63 109 2.0 6.0 0.00 0.00 0.00 47 1015.2
20260508171419 63 109 2.0 6.0 0.00 0.00 0.00 47 1015.2
20260508170919 63 111 2.0 6.0 0.00 0.00 0.00 49 1015.2
20260508170625 63 112 2.0 6.0 0.00 0.00 0.00 48 1015.2
20260508170419 63 111 2.0 6.0 0.00 0.00 0.00 48 1015.2
20260508165919 63 111 1.0 3.0 0.00 0.00 0.00 48 1015.2
20260508165627 63 112 1.0 2.0 0.00 0.00 0.00 46 1015.2
20260508165419 63 112 1.0 6.0 0.00 0.00 0.00 46 1015.1
20260508164919 63 104 2.0 8.0 0.00 0.00 0.00 48 1015.1
20260508164626 63 113 2.0 8.0 0.00 0.00 0.00 44 1015.1
20260508164419 63 75 3.0 8.0 0.00 0.00 0.00 44 1015.1
20260508163625 64 57 4.0 9.0 0.00 0.00 0.00 44 1015.2
20260508163419 64 62 3.0 9.0 0.00 0.00 0.00 44 1015.2
20260508162919 64 36 2.0 6.0 0.00 0.00 0.00 45 1015.1
20260508162625 64 12 2.0 6.0 0.00 0.00 0.00 47 1015.2
20260508161919 64 46 2.0 5.0 0.00 0.00 0.00 47 1015.2
20260508161625 64 71 2.0 5.0 0.00 0.00 0.00 46 1015.2
20260508161419 64 71 2.0 9.0 0.00 0.00 0.00 46 1015.2
20260508160919 64 64 3.0 9.0 0.00 0.00 0.00 43 1015.2
20260508160626 64 45 2.0 5.0 0.00 0.00 0.00 44 1015.2
20260508155919 64 63 2.0 7.0 0.00 0.00 0.00 45 1015.3
20260508155420 64 64 2.0 5.0 0.00 0.00 0.00 46 1015.4
20260508154920 64 64 1.0 4.0 0.00 0.00 0.00 43 1015.5
20260508154625 64 63 1.0 3.0 0.00 0.00 0.00 45 1015.4
20260508154419 64 64 1.0 3.0 0.00 0.00 0.00 45 1015.5
20260508153920 65 64 2.0 5.0 0.00 0.00 0.00 44 1015.4
20260508153625 65 63 2.0 4.0 0.00 0.00 0.00 44 1015.6
20260508153420 65 60 3.0 9.0 0.00 0.00 0.00 44 1015.6
20260508152920 65 61 3.0 9.0 0.00 0.00 0.00 44 1015.5
20260508152625 65 69 2.0 5.0 0.00 0.00 0.00 44 1015.6
20260508152419 65 67 1.0 5.0 0.00 0.00 0.00 44 1015.6
20260508151625 66 66 1.0 4.0 0.00 0.00 0.00 41 1015.7
20260508151419 66 66 2.0 4.0 0.00 0.00 0.00 41 1015.7
20260508150920 65 65 2.0 4.0 0.00 0.00 0.00 47 1015.7
20260508150625 65 64 2.0 4.0 0.00 0.00 0.00 47 1015.7
20260508145919 65 64 2.0 4.0 0.00 0.00 0.00 47 1015.7
20260508145625 64 64 2.0 4.0 0.00 0.00 0.00 48 1015.6
20260508144919 64 92 2.0 4.0 0.00 0.00 0.00 49 1015.6
20260508144625 63 94 1.0 4.0 0.00 0.00 0.00 46 1015.6
20260508144419 63 92 2.0 5.0 0.00 0.00 0.00 46 1015.6
20260508143919 63 81 2.0 5.0 0.00 0.00 0.00 46 1015.7
20260508143625 64 63 1.0 4.0 0.00 0.00 0.00 42 1015.8
20260508142919 64 52 3.0 6.0 0.00 0.00 0.00 45 1015.7
20260508142625 64 63 3.0 7.0 0.00 0.00 0.00 47 1015.8
20260508142419 64 48 3.0 6.0 0.00 0.00 0.00 52 1015.7
20260508141625 63 53 1.0 4.0 0.00 0.00 0.00 54 1016.0
20260508141419 64 54 1.0 4.0 0.00 0.00 0.00 50 1016.0
20260508140920 63 54 1.0 4.0 0.00 0.00 0.00 54 1016.0
20260508140625 63 53 1.0 3.0 0.00 0.00 0.00 51 1016.0
20260508140419 63 54 2.0 4.0 0.00 0.00 0.00 51 1016.0
20260508135919 63 36 2.0 5.0 0.00 0.00 0.00 55 1016.1
20260508135625 62 53 2.0 5.0 0.00 0.00 0.00 56 1016.2
20260508135419 62 342 2.0 5.0 0.00 0.00 0.00 56 1016.1
20260508134919 62 319 2.0 4.0 0.00 0.00 0.00 61 1016.2
20260508134625 62 305 2.0 4.0 0.00 0.00 0.00 61 1016.2
20260508134419 62 348 2.0 4.0 0.00 0.00 0.00 61 1016.2
20260508133919 62 18 2.0 5.0 0.00 0.00 0.00 60 1016.1
20260508133625 61 17 2.0 5.0 0.00 0.00 0.00 60 1016.1
20260508133419 61 18 2.0 5.0 0.00 0.00 0.00 60 1016.2
20260508132919 61 15 2.0 5.0 0.00 0.00 0.00 62 1016.1
20260508132625 61 17 2.0 5.0 0.00 0.00 0.00 62 1016.2
20260508132419 61 13 2.0 5.0 0.00 0.00 0.00 62 1016.2
20260508131919 61 12 2.0 5.0 0.00 0.00 0.00 62 1016.1
20260508131625 61 12 2.0 5.0 0.00 0.00 0.00 60 1016.2
20260508131420 61 12 2.0 5.0 0.00 0.00 0.00 60 1016.2
20260508130919 61 12 1.0 4.0 0.00 0.00 0.00 59 1016.2
20260508130625 61 12 1.0 4.0 0.00 0.00 0.00 61 1016.2
20260508130419 61 12 2.0 4.0 0.00 0.00 0.00 61 1016.2
20260508125625 61 12 2.0 4.0 0.00 0.00 0.00 61 1016.4
20260508124919 61 36 3.0 5.0 0.00 0.00 0.00 61 1016.3
20260508124625 61 12 2.0 5.0 0.00 0.00 0.00 62 1016.4
20260508124419 61 63 3.0 6.0 0.00 0.00 0.00 62 1016.4
20260508123919 61 66 2.0 6.0 0.00 0.00 0.00 62 1016.3
20260508123625 61 66 1.0 4.0 0.00 0.00 0.00 63 1016.4
20260508123419 61 67 2.0 4.0 0.00 0.00 0.00 63 1016.4
20260508122919 61 67 3.0 6.0 0.00 0.00 0.00 61 1016.3
20260508122625 61 66 3.0 6.0 0.00 0.00 0.00 60 1016.3
20260508122420 61 66 3.0 6.0 0.00 0.00 0.00 60 1016.3
20260508121919 62 66 3.0 5.0 0.00 0.00 0.00 62 1016.3
20260508120920 62 72 3.0 9.0 0.00 0.00 0.00 61 1016.2
20260508120625 62 66 4.0 9.0 0.00 0.00 0.00 62 1016.1
20260508120419 62 79 4.0 9.0 0.00 0.00 0.00 62 1016.1
20260508115921 62 82 3.0 6.0 0.00 0.00 0.00 61 1016.2
20260508115625 63 82 3.0 6.0 0.00 0.00 0.00 61 1016.1
20260508115420 63 68 3.0 7.0 0.00 0.00 0.00 61 1016.1
20260508114920 63 56 3.0 9.0 0.00 0.00 0.00 62 1016.1
20260508114625 63 55 3.0 9.0 0.00 0.00 0.00 62 1016.1
20260508114419 63 64 3.0 9.0 0.00 0.00 0.00 62 1016.1
20260508113920 63 84 3.0 8.0 0.00 0.00 0.00 62 1016.1
20260508113626 64 63 2.0 8.0 0.00 0.00 0.00 61 1016.1
20260508112919 64 111 2.0 7.0 0.00 0.00 0.00 59 1016.1
20260508112625 64 111 2.0 7.0 0.00 0.00 0.00 60 1016.2
20260508112420 64 111 2.0 7.0 0.00 0.00 0.00 60 1016.2
20260508111919 64 111 2.0 3.0 0.00 0.00 0.00 61 1016.2
20260508111625 64 112 1.0 3.0 0.00 0.00 0.00 61 1016.1
20260508111420 64 112 2.0 4.0 0.00 0.00 0.00 61 1016.1
20260508110919 64 113 2.0 4.0 0.00 0.00 0.00 60 1016.2
20260508110625 64 114 1.0 3.0 0.00 0.00 0.00 56 1016.2
20260508110420 64 114 1.0 3.0 0.00 0.00 0.00 56 1016.2
20260508105919 65 127 2.0 8.0 0.00 0.00 0.00 55 1016.2
20260508105625 65 114 3.0 8.0 0.00 0.00 0.00 55 1016.2
20260508105420 65 120 3.0 8.0 0.00 0.00 0.00 55 1016.2
20260508104919 66 89 3.0 7.0 0.00 0.00 0.00 56 1016.3
20260508104625 66 80 3.0 7.0 0.00 0.00 0.00 59 1016.2
20260508104420 66 45 3.0 7.0 0.00 0.00 0.00 59 1016.2
20260508103919 65 72 3.0 6.0 0.00 0.00 0.00 61 1016.2
20260508103625 65 100 3.0 6.0 0.00 0.00 0.00 58 1016.3
20260508103420 65 80 3.0 6.0 0.00 0.00 0.00 58 1016.3
20260508102920 65 63 2.0 7.0 0.00 0.00 0.00 60 1016.2
20260508102625 65 61 2.0 7.0 0.00 0.00 0.00 56 1016.2
20260508102419 65 66 2.0 7.0 0.00 0.00 0.00 56 1016.2
20260508101920 65 70 2.0 6.0 0.00 0.00 0.00 57 1016.2
20260508101626 64 70 2.0 4.0 0.00 0.00 0.00 58 1016.3
20260508101420 64 69 3.0 10.0 0.00 0.00 0.00 58 1016.3
20260508100920 64 74 4.0 10.0 0.00 0.00 0.00 57 1016.3
20260508100625 63 70 4.0 8.0 0.00 0.00 0.00 57 1016.3
20260508095625 63 63 3.0 9.0 0.00 0.00 0.00 61 1016.5
20260508095420 63 64 2.0 9.0 0.00 0.00 0.00 61 1016.5
20260508094920 63 54 2.0 6.0 0.00 0.00 0.00 57 1016.5
20260508094625 62 47 3.0 6.0 0.00 0.00 0.00 60 1016.6
20260508094420 62 76 3.0 7.0 0.00 0.00 0.00 60 1016.6
20260508093920 62 92 3.0 9.0 0.00 0.00 0.00 60 1016.4
20260508093625 62 91 4.0 9.0 0.00 0.00 0.00 61 1016.5
20260508093420 62 96 4.0 9.0 0.00 0.00 0.00 61 1016.4
20260508092625 61 104 3.0 10.0 0.00 0.00 0.00 62 1016.4
20260508092420 61 106 3.0 10.0 0.00 0.00 0.00 62 1016.4
20260508091920 61 100 4.0 8.0 0.00 0.00 0.00 61 1016.5
20260508091625 61 95 3.0 7.0 0.00 0.00 0.00 60 1016.5
20260508091420 61 95 3.0 7.0 0.00 0.00 0.00 60 1016.5
20260508090920 60 98 3.0 8.0 0.00 0.00 0.00 66 1016.4
20260508090420 60 101 3.0 8.0 0.00 0.00 0.00 68 1016.4
20260508085920 59 103 3.0 7.0 0.00 0.00 0.00 69 1016.4
20260508085625 59 104 3.0 7.0 0.00 0.00 0.00 70 1016.5
20260508085420 59 105 4.0 8.0 0.00 0.00 0.00 70 1016.5
20260508084625 59 103 4.0 8.0 0.00 0.00 0.00 71 1016.4
20260508084420 59 104 4.0 8.0 0.00 0.00 0.00 71 1016.4
20260508083920 58 105 3.0 7.0 0.00 0.00 0.00 72 1016.5
20260508083625 58 105 3.0 5.0 0.00 0.00 0.00 72 1016.5
20260508082920 58 103 4.0 8.0 0.00 0.00 0.00 74 1016.4
20260508082625 57 99 4.0 7.0 0.00 0.00 0.00 74 1016.4
20260508082420 57 97 4.0 8.0 0.00 0.00 0.00 73 1016.4
20260508081920 57 95 3.0 8.0 0.00 0.00 0.00 74 1016.4
20260508081626 56 95 2.0 4.0 0.00 0.00 0.00 76 1016.5
20260508081420 56 95 3.0 8.0 0.00 0.00 0.00 76 1016.5
20260508080919 56 95 4.0 8.0 0.00 0.00 0.00 74 1016.5
20260508080625 56 95 4.0 8.0 0.00 0.00 0.00 76 1016.4
20260508080420 56 91 4.0 8.0 0.00 0.00 0.00 76 1016.4
20260508075919 55 83 3.0 7.0 0.00 0.00 0.00 76 1016.3
20260508075625 56 79 3.0 6.0 0.00 0.01 0.00 76 1016.5
20260508075420 56 79 3.0 6.0 0.00 0.00 0.00 76 1016.5
20260508074920 56 79 4.0 8.0 0.00 0.01 0.00 77 1016.5
20260508074625 55 78 4.0 8.0 0.00 0.01 0.00 77 1016.5
20260508074420 55 80 4.0 8.0 0.00 0.01 0.00 77 1016.5
20260508073420 54 78 2.0 8.0 0.00 0.01 0.00 78 1016.5
20260508072920 54 78 2.0 8.0 0.00 0.01 0.00 80 1016.5
20260508072625 53 78 2.0 6.0 0.00 0.01 0.00 80 1016.5
20260508072419 53 77 3.0 6.0 0.00 0.01 0.00 80 1016.5
20260508071922 53 76 3.0 6.0 0.00 0.01 0.00 80 1016.4
20260508070919 52 70 2.0 5.0 0.00 0.01 0.00 81 1016.6